ProjectID,Date,Electric Generation,Electric Utility Import,Facility Electric Load
,YYYY-MM-DD,kW,kW,kW
457,2018-02-01,108.89845833333334,,108.89845833333334
457,2018-02-02,187.70712500000002,,187.70712500000002
457,2018-02-03,172.08466666666666,,172.08466666666666
457,2018-02-04,172.06525000000002,,172.06525000000002
457,2018-02-05,197.9610416666667,,197.9610416666667
457,2018-02-06,206.73579166666664,,206.73579166666664
457,2018-02-07,206.08737499999998,,206.08737499999998
457,2018-02-08,206.50537500000004,,206.50537500000004
457,2018-02-09,206.26583333333338,,206.26583333333338
457,2018-02-10,171.2084166666667,,171.2084166666667
457,2018-02-11,144.22666666666666,,144.22666666666666
457,2018-02-12,161.802125,,161.802125
457,2018-02-13,172.38679166666668,,172.38679166666668
457,2018-02-14,172.0691666666667,,172.0691666666667
457,2018-02-15,171.64725,,171.64725
457,2018-02-16,170.70183333333333,,170.70183333333333
457,2018-02-17,172.30879166666668,,172.30879166666668
457,2018-02-18,172.2345,,172.2345
457,2018-02-19,172.09775,,172.09775
457,2018-02-20,169.54833333333335,,169.54833333333335
457,2018-02-21,167.47533333333334,,167.47533333333334
457,2018-02-22,168.98320833333335,,168.98320833333335
457,2018-02-23,170.64075,,170.64075
457,2018-02-24,169.42845833333334,,169.42845833333334
457,2018-02-25,171.33466666666664,,171.33466666666664
457,2018-02-26,171.8374166666667,,171.8374166666667
457,2018-02-27,171.69275000000002,,171.69275000000002
457,2018-02-28,171.24879166666668,,171.24879166666668
457,2018-03-01,168.856875,,168.856875
457,2018-03-02,169.33220833333334,,169.33220833333334
457,2018-03-03,168.76441666666668,,168.76441666666668
457,2018-03-04,165.57562500000003,,165.57562500000003
457,2018-03-05,161.44283333333337,,161.44283333333337
457,2018-03-06,5.734375,,5.734375
457,2018-03-07,0.0,,0.0
457,2018-03-08,0.0,,0.0
457,2018-03-09,0.0,,0.0
457,2018-03-10,0.0,,0.0
457,2018-03-11,0.0,,0.0
457,2018-03-12,0.0,,0.0
457,2018-03-13,0.0,,0.0
457,2018-03-14,0.0,,0.0
457,2018-03-15,0.0,,0.0
457,2018-03-16,0.0,,0.0
457,2018-03-17,0.0,,0.0
457,2018-03-18,0.0,,0.0
457,2018-03-19,0.0,,0.0
457,2018-03-20,0.0,,0.0
457,2018-03-21,0.0,,0.0
457,2018-03-22,0.0,,0.0
457,2018-03-23,0.0,,0.0
457,2018-03-24,0.0,,0.0
457,2018-03-25,0.0,,0.0
457,2018-03-26,0.0,,0.0
457,2018-03-27,0.0,,0.0
457,2018-03-28,0.0,,0.0
457,2018-03-29,0.0,,0.0
457,2018-03-30,0.0,,0.0
457,2018-03-31,0.0,,0.0
457,2018-04-01,0.0,,0.0
457,2018-04-02,0.0,,0.0
457,2018-04-03,0.0,,0.0
457,2018-04-04,0.0,,0.0
457,2018-04-05,0.0,,0.0
457,2018-04-06,0.0,,0.0
457,2018-04-07,0.0,,0.0
457,2018-04-08,0.0,,0.0
457,2018-04-09,0.0,,0.0
457,2018-04-10,0.0,,0.0
457,2018-04-11,0.0,,0.0
457,2018-04-12,0.0,,0.0
457,2018-04-13,0.0,,0.0
457,2018-04-14,0.0,,0.0
457,2018-04-15,0.0,,0.0
457,2018-04-16,0.0,,0.0
457,2018-04-17,0.0,,0.0
457,2018-04-18,0.0,,0.0
457,2018-04-19,195.22795833333336,,195.22795833333336
457,2018-04-20,203.63558333333336,,203.63558333333336
457,2018-04-21,201.31537500000002,,201.31537500000002
457,2018-04-22,200.052375,,200.052375
457,2018-04-23,199.9950416666667,,199.9950416666667
457,2018-04-24,199.04445833333338,,199.04445833333338
457,2018-04-25,198.1225416666667,,198.1225416666667
457,2018-04-26,197.28137500000003,,197.28137500000003
457,2018-04-27,199.0992916666667,,199.0992916666667
457,2018-04-28,198.38820833333338,,198.38820833333338
457,2018-04-29,199.89083333333338,,199.89083333333338
457,2018-04-30,201.80754166666668,,201.80754166666668
457,2018-05-01,198.00545833333334,,198.00545833333334
457,2018-05-02,180.25025000000005,,180.25025000000005
457,2018-05-03,158.1356666666667,,158.1356666666667
457,2018-05-04,161.14354166666672,,161.14354166666672
457,2018-05-05,163.18520833333338,,163.18520833333338
457,2018-05-06,164.5835416666667,,164.5835416666667
457,2018-05-07,163.898625,,163.898625
457,2018-05-08,164.617375,,164.617375
457,2018-05-09,164.5262916666667,,164.5262916666667
457,2018-05-10,165.22412500000004,,165.22412500000004
457,2018-05-11,163.6304166666667,,163.6304166666667
457,2018-05-12,164.82320833333338,,164.82320833333338
457,2018-05-13,165.77358333333333,,165.77358333333333
457,2018-05-14,164.80745833333336,,164.80745833333336
457,2018-05-15,161.60962500000002,,161.60962500000002
457,2018-05-16,163.82312500000003,,163.82312500000003
457,2018-05-17,163.90125000000003,,163.90125000000003
457,2018-05-18,164.62520833333335,,164.62520833333335
457,2018-05-19,165.45337500000002,,165.45337500000002
457,2018-05-20,144.62783333333337,,144.62783333333337
457,2018-05-21,154.47158333333337,,154.47158333333337
457,2018-05-22,165.58883333333338,,165.58883333333338
457,2018-05-23,6.953125,,6.953125
457,2018-05-24,176.6251666666667,,176.6251666666667
457,2018-05-25,189.44300000000007,,189.44300000000007
457,2018-05-26,186.9559166666667,,186.9559166666667
457,2018-05-27,196.59925,,196.59925
457,2018-05-28,198.19816666666668,,198.19816666666668
457,2018-05-29,191.42466666666667,,191.42466666666667
457,2018-05-30,184.34395833333335,,184.34395833333335
457,2018-05-31,195.97416666666672,,195.97416666666672
457,2018-06-01,192.92462500000002,,192.92462500000002
457,2018-06-02,186.11479166666666,,186.11479166666666
457,2018-06-03,198.67208333333335,,198.67208333333335
457,2018-06-04,198.0861666666667,,198.0861666666667
457,2018-06-05,194.36220833333337,,194.36220833333337
457,2018-06-06,196.3128333333334,,196.3128333333334
457,2018-06-07,195.70600000000002,,195.70600000000002
457,2018-06-08,176.8075416666667,,176.8075416666667
457,2018-06-09,189.56533333333334,,189.56533333333334
457,2018-06-10,194.55508333333339,,194.55508333333339
457,2018-06-11,184.65650000000005,,184.65650000000005
457,2018-06-12,195.27633333333338,,195.27633333333338
457,2018-06-13,8.177083333333334,,8.177083333333334
457,2018-06-14,0.0,,0.0
457,2018-06-15,0.0,,0.0
457,2018-06-16,0.0,,0.0
457,2018-06-17,0.0,,0.0
457,2018-06-18,111.15637500000001,,111.15637500000001
457,2018-06-19,159.54720833333337,,159.54720833333337
457,2018-06-20,152.07833333333335,,152.07833333333335
457,2018-06-21,172.25287500000002,,172.25287500000002
457,2018-06-22,183.40904166666667,,183.40904166666667
457,2018-06-23,187.53929166666668,,187.53929166666668
457,2018-06-24,177.88312500000004,,177.88312500000004
457,2018-06-25,174.69550000000004,,174.69550000000004
457,2018-06-26,178.75287500000002,,178.75287500000002
457,2018-06-27,177.22683333333336,,177.22683333333336
457,2018-06-28,83.09387500000001,,83.09387500000001
457,2018-06-29,48.97141666666667,,48.97141666666667
457,2018-06-30,61.07308333333334,,61.07308333333334
457,2018-07-01,92.32058333333335,,92.32058333333335
457,2018-07-02,130.560125,,130.560125
457,2018-07-03,172.58620833333336,,172.58620833333336
457,2018-07-04,164.29445833333335,,164.29445833333335
457,2018-07-05,164.8805416666667,,164.8805416666667
457,2018-07-06,177.052375,,177.052375
457,2018-07-07,185.4037916666667,,185.4037916666667
457,2018-07-08,181.9299166666667,,181.9299166666667
457,2018-07-09,177.35695833333332,,177.35695833333332
457,2018-07-10,164.06012500000003,,164.06012500000003
457,2018-07-11,163.11229166666672,,163.11229166666672
457,2018-07-12,171.98470833333337,,171.98470833333337
457,2018-07-13,117.10691666666668,,117.10691666666668
457,2018-07-14,135.28408333333337,,135.28408333333337
457,2018-07-15,126.97416666666668,,126.97416666666668
457,2018-07-16,144.45337500000002,,144.45337500000002
457,2018-07-17,166.71895833333335,,166.71895833333335
457,2018-07-18,188.45333333333338,,188.45333333333338
457,2018-07-19,189.85695833333332,,189.85695833333332
457,2018-07-20,189.2684166666667,,189.2684166666667
457,2018-07-21,192.45333333333338,,192.45333333333338
457,2018-07-22,190.11225000000002,,190.11225000000002
457,2018-07-23,188.33354166666672,,188.33354166666672
457,2018-07-24,187.98979166666672,,187.98979166666672
457,2018-07-25,183.24495833333333,,183.24495833333333
457,2018-07-26,183.96383333333335,,183.96383333333335
457,2018-07-27,180.7268333333334,,180.7268333333334
457,2018-07-28,187.74758333333332,,187.74758333333332
457,2018-07-29,189.24508333333335,,189.24508333333335
457,2018-07-30,190.34925,,190.34925
457,2018-07-31,189.9559166666667,,189.9559166666667
457,2018-08-01,164.8231666666667,,164.8231666666667
457,2018-08-02,154.64866666666668,,154.64866666666668
457,2018-08-03,173.55750000000003,,173.55750000000003
457,2018-08-04,188.02104166666666,,188.02104166666666
457,2018-08-05,184.4402916666667,,184.4402916666667
457,2018-08-06,178.49495833333336,,178.49495833333336
457,2018-08-07,186.8335,,186.8335
457,2018-08-08,186.84141666666673,,186.84141666666673
457,2018-08-09,187.482,,187.482
457,2018-08-10,187.10958333333335,,187.10958333333335
457,2018-08-11,191.09658333333337,,191.09658333333337
457,2018-08-12,190.59404166666673,,190.59404166666673
457,2018-08-13,191.2970416666667,,191.2970416666667
457,2018-08-14,189.3622916666667,,189.3622916666667
457,2018-08-15,188.44808333333336,,188.44808333333336
457,2018-08-16,186.10700000000006,,186.10700000000006
457,2018-08-17,187.6565416666667,,187.6565416666667
457,2018-08-18,188.0496666666667,,188.0496666666667
457,2018-08-19,193.30495833333336,,193.30495833333336
457,2018-08-20,193.31016666666667,,193.31016666666667
457,2018-08-21,192.77620833333333,,192.77620833333333
457,2018-08-22,190.02100000000004,,190.02100000000004
457,2018-08-23,193.31016666666673,,193.31016666666673
457,2018-08-24,191.12783333333334,,191.12783333333334
457,2018-08-25,190.99241666666668,,190.99241666666668
457,2018-08-26,189.89350000000005,,189.89350000000005
457,2018-08-27,187.05750000000003,,187.05750000000003
457,2018-08-28,183.61233333333337,,183.61233333333337
457,2018-08-29,182.607,,182.607
457,2018-08-30,186.7970416666667,,186.7970416666667
457,2018-08-31,83.92216666666671,,83.92216666666671
457,2018-09-01,35.343999999999994,,35.343999999999994
457,2018-09-02,32.94291666666666,,32.94291666666666
457,2018-09-03,100.245,,100.245
457,2018-09-04,170.685125,,170.685125
457,2018-09-05,188.6721666666667,,188.6721666666667
457,2018-09-06,183.54445833333332,,183.54445833333332
457,2018-09-07,191.8987083333334,,191.8987083333334
457,2018-09-08,194.55745833333333,,194.55745833333333
457,2018-09-09,91.28933333333337,,91.28933333333337
457,2018-09-10,125.25533333333334,,125.25533333333334
457,2018-09-11,193.39350000000005,,193.39350000000005
457,2018-09-12,191.49766666666667,,191.49766666666667
457,2018-09-13,192.7294166666667,,192.7294166666667
457,2018-09-14,193.40133333333335,,193.40133333333335
457,2018-09-15,192.74233333333336,,192.74233333333336
457,2018-09-16,191.864875,,191.864875
457,2018-09-17,191.6486666666667,,191.6486666666667
457,2018-09-18,191.80500000000006,,191.80500000000006
457,2018-09-19,192.4091666666667,,192.4091666666667
457,2018-09-20,195.02883333333338,,195.02883333333338
457,2018-09-21,8.145833333333334,,8.145833333333334
457,2018-09-22,0.0,,0.0
457,2018-09-23,0.0,,0.0
457,2018-09-24,84.88033333333334,,84.88033333333334
457,2018-09-25,196.9429583333334,,196.9429583333334
457,2018-09-26,191.9924583333334,,191.9924583333334
457,2018-09-27,197.02895833333335,,197.02895833333335
457,2018-09-28,167.54712500000002,,167.54712500000002
457,2018-09-29,161.95862500000004,,161.95862500000004
457,2018-09-30,161.83616666666668,,161.83616666666668
457,2018-10-01,159.60183333333336,,159.60183333333336
457,2018-10-02,159.73983333333337,,159.73983333333337
457,2018-10-03,159.25537500000004,,159.25537500000004
457,2018-10-04,160.75275000000002,,160.75275000000002
457,2018-10-05,162.5965416666667,,162.5965416666667
457,2018-10-06,162.12783333333337,,162.12783333333337
457,2018-10-07,159.00016666666667,,159.00016666666667
457,2018-10-08,161.75808333333336,,161.75808333333336
457,2018-10-09,159.6434166666667,,159.6434166666667
457,2018-10-10,158.79975000000005,,158.79975000000005
457,2018-10-11,153.04712500000002,,153.04712500000002
457,2018-10-12,153.75033333333337,,153.75033333333337
457,2018-10-13,168.7320416666667,,168.7320416666667
457,2018-10-14,167.18770833333335,,167.18770833333335
457,2018-10-15,162.91433333333336,,162.91433333333336
457,2018-10-16,168.229375,,168.229375
457,2018-10-17,167.93250000000003,,167.93250000000003
457,2018-10-18,169.70070833333338,,169.70070833333338
457,2018-10-19,168.20329166666667,,168.20329166666667
457,2018-10-20,6.859375,,6.859375
457,2018-10-21,160.38825000000003,,160.38825000000003
457,2018-10-22,169.46895833333335,,169.46895833333335
457,2018-10-23,166.21908333333337,,166.21908333333337
457,2018-10-24,169.27108333333337,,169.27108333333337
457,2018-10-25,169.95333333333335,,169.95333333333335
457,2018-10-26,169.97425000000004,,169.97425000000004
457,2018-10-27,164.62533333333337,,164.62533333333337
457,2018-10-28,168.28670833333337,,168.28670833333337
457,2018-10-29,167.0496666666667,,167.0496666666667
457,2018-10-30,169.3414166666667,,169.3414166666667
457,2018-10-31,166.4402916666667,,166.4402916666667
457,2018-11-01,162.50808333333336,,162.50808333333336
457,2018-11-02,153.95333333333335,,153.95333333333335
457,2018-11-03,158.0627916666667,,158.0627916666667
457,2018-11-04,161.88308333333336,,161.88308333333336
457,2018-11-05,168.01320833333335,,168.01320833333335
457,2018-11-06,164.36220833333337,,164.36220833333337
457,2018-11-07,6.789083333333333,,6.789083333333333
457,2018-11-08,159.68775000000002,,159.68775000000002
457,2018-11-09,168.45862500000004,,168.45862500000004
457,2018-11-10,169.1929166666667,,169.1929166666667
457,2018-11-11,170.08358333333337,,170.08358333333337
457,2018-11-12,169.40645833333335,,169.40645833333335
457,2018-11-13,169.4272916666667,,169.4272916666667
457,2018-11-14,128.56787500000002,,128.56787500000002
457,2018-11-15,0.0,,0.0
457,2018-11-16,100.224125,,100.224125
457,2018-11-17,165.1434166666667,,165.1434166666667
457,2018-11-18,164.86225000000005,,164.86225000000005
457,2018-11-19,163.28150000000002,,163.28150000000002
457,2018-11-20,163.9012916666667,,163.9012916666667
457,2018-11-21,165.66683333333336,,165.66683333333336
457,2018-11-22,170.65662500000005,,170.65662500000005
457,2018-11-23,169.59400000000002,,169.59400000000002
457,2018-11-24,164.95075000000003,,164.95075000000003
457,2018-11-25,162.07579166666673,,162.07579166666673
457,2018-11-26,162.31012500000003,,162.31012500000003
457,2018-11-27,164.56791666666672,,164.56791666666672
457,2018-11-28,165.79179166666668,,165.79179166666668
457,2018-11-29,182.37791666666672,,182.37791666666672
457,2018-11-30,197.47412500000004,,197.47412500000004
457,2018-12-01,196.99504166666668,,196.99504166666668
457,2018-12-02,194.44816666666668,,194.44816666666668
457,2018-12-03,194.03408333333337,,194.03408333333337
457,2018-12-04,198.69291666666666,,198.69291666666666
457,2018-12-05,200.0029166666667,,200.0029166666667
457,2018-12-06,198.73195833333338,,198.73195833333338
457,2018-12-07,201.27116666666674,,201.27116666666674
457,2018-12-08,204.6694166666667,,204.6694166666667
457,2018-12-09,204.18508333333338,,204.18508333333338
457,2018-12-10,201.95079166666673,,201.95079166666673
457,2018-12-11,202.91425000000004,,202.91425000000004
457,2018-12-12,202.739875,,202.739875
457,2018-12-13,202.22675,,202.22675
457,2018-12-14,198.5835833333334,,198.5835833333334
457,2018-12-15,197.2032916666667,,197.2032916666667
457,2018-12-16,201.19291666666672,,201.19291666666672
457,2018-12-17,201.2501666666667,,201.2501666666667
457,2018-12-18,202.76058333333336,,202.76058333333336
457,2018-12-19,165.4741666666667,,165.4741666666667
457,2018-12-20,189.11979166666666,,189.11979166666666
457,2018-12-21,178.015625,,178.015625
457,2018-12-22,188.47395833333334,,188.47395833333334
457,2018-12-23,201.4375,,201.4375
457,2018-12-24,200.84375,,200.84375
457,2018-12-25,201.25,,201.25
457,2018-12-26,200.41666666666666,,200.41666666666666
457,2018-12-27,199.16666666666666,,199.16666666666666
457,2018-12-28,196.171875,,196.171875
457,2018-12-29,197.04166666666666,,197.04166666666666
457,2018-12-30,201.09895833333334,,201.09895833333334
457,2018-12-31,200.17708333333334,,200.17708333333334
457,2019-01-01,174.15104166666666,,174.15104166666666
457,2019-01-02,169.32291666666666,,169.32291666666666
457,2019-01-03,168.73958333333334,,168.73958333333334
457,2019-01-04,168.546875,,168.546875
457,2019-01-05,166.01041666666666,,166.01041666666666
457,2019-01-06,168.47916666666666,,168.47916666666666
457,2019-01-07,170.28125,,170.28125
457,2019-01-08,180.1875,,180.1875
457,2019-01-09,197.6875,,197.6875
457,2019-01-10,199.890625,,199.890625
457,2019-01-11,173.046875,,173.046875
457,2019-01-12,170.296875,,170.296875
457,2019-01-13,170.25,,170.25
457,2019-01-14,170.6875,,170.6875
457,2019-01-15,170.25520833333334,,170.25520833333334
457,2019-01-16,169.703125,,169.703125
457,2019-01-17,170.015625,,170.015625
457,2019-01-18,169.47916666666666,,169.47916666666666
457,2019-01-19,169.65104166666666,,169.65104166666666
457,2019-01-20,165.078125,,165.078125
457,2019-01-21,171.06770833333334,,171.06770833333334
457,2019-01-22,171.16145833333334,,171.16145833333334
457,2019-01-23,169.54166666666666,,169.54166666666666
457,2019-01-24,160.671875,,160.671875
457,2019-01-25,128.671875,,128.671875
457,2019-01-26,101.21875,,101.21875
457,2019-01-27,98.8125,,98.8125
457,2019-01-28,100.27604166666667,,100.27604166666667
457,2019-01-29,118.515625,,118.515625
457,2019-01-30,135.78125,,135.78125
457,2019-01-31,136.625,,136.625
457,2019-02-01,136.15625,,136.15625
457,2019-02-02,135.453125,,135.453125
457,2019-02-03,131.015625,,131.015625
457,2019-02-04,121.54166666666667,,121.54166666666667
457,2019-02-05,125.07291666666667,,125.07291666666667
457,2019-02-06,153.68229166666666,,153.68229166666666
457,2019-02-07,158.92708333333334,,158.92708333333334
457,2019-02-08,163.05729166666666,,163.05729166666666
457,2019-02-09,169.90104166666666,,169.90104166666666
457,2019-02-10,169.53125,,169.53125
457,2019-02-11,154.66666666666666,,154.66666666666666
457,2019-02-12,159.60416666666666,,159.60416666666666
457,2019-02-13,162.33854166666666,,162.33854166666666
457,2019-02-14,153.56770833333334,,153.56770833333334
457,2019-02-15,142.140625,,142.140625
457,2019-02-16,155.35416666666666,,155.35416666666666
457,2019-02-17,158.97916666666666,,158.97916666666666
457,2019-02-18,162.0,,162.0
457,2019-02-19,169.38020833333334,,169.38020833333334
457,2019-02-20,169.08333333333334,,169.08333333333334
457,2019-02-21,166.0,,166.0
457,2019-02-22,165.76041666666666,,165.76041666666666
457,2019-02-23,149.19791666666666,,149.19791666666666
457,2019-02-24,133.046875,,133.046875
457,2019-02-25,127.22916666666667,,127.22916666666667
457,2019-02-26,168.77604166666666,,168.77604166666666
457,2019-02-27,179.484375,,179.484375
457,2019-02-28,190.53645833333334,,190.53645833333334
457,2019-03-01,194.984375,,194.984375
457,2019-03-02,204.07291666666666,,204.07291666666666
457,2019-03-03,203.70833333333334,,203.70833333333334
457,2019-03-04,204.02083333333334,,204.02083333333334
457,2019-03-05,186.32291666666666,,186.32291666666666
457,2019-03-06,170.83333333333334,,170.83333333333334
457,2019-03-07,170.76041666666666,,170.76041666666666
457,2019-03-08,169.984375,,169.984375
457,2019-03-09,168.13541666666666,,168.13541666666666
457,2019-03-10,157.546875,,157.546875
457,2019-03-11,164.53125,,164.53125
457,2019-03-12,168.13020833333334,,168.13020833333334
457,2019-03-13,161.27083333333334,,161.27083333333334
457,2019-03-14,163.18229166666666,,163.18229166666666
457,2019-03-15,153.46354166666666,,153.46354166666666
457,2019-03-16,161.75520833333334,,161.75520833333334
457,2019-03-17,165.05208333333334,,165.05208333333334
457,2019-03-18,161.75520833333334,,161.75520833333334
457,2019-03-19,160.27083333333334,,160.27083333333334
457,2019-03-20,155.92708333333334,,155.92708333333334
457,2019-03-21,158.890625,,158.890625
457,2019-03-22,152.73958333333334,,152.73958333333334
457,2019-03-23,133.02083333333334,,133.02083333333334
457,2019-03-24,130.64583333333334,,130.64583333333334
457,2019-03-25,129.71875,,129.71875
457,2019-03-26,133.234375,,133.234375
457,2019-03-27,139.39583333333334,,139.39583333333334
457,2019-03-28,137.80208333333334,,137.80208333333334
457,2019-03-29,156.03645833333334,,156.03645833333334
457,2019-03-30,156.4375,,156.4375
457,2019-03-31,160.625,,160.625
457,2019-04-01,165.0625,,165.0625
457,2019-04-02,162.59895833333334,,162.59895833333334
457,2019-04-03,155.03125,,155.03125
457,2019-04-04,159.27083333333334,,159.27083333333334
457,2019-04-05,161.86458333333334,,161.86458333333334
457,2019-04-06,156.16666666666666,,156.16666666666666
457,2019-04-07,150.26041666666666,,150.26041666666666
457,2019-04-08,149.79166666666666,,149.79166666666666
457,2019-04-09,159.29166666666666,,159.29166666666666
457,2019-04-10,160.17708333333334,,160.17708333333334
457,2019-04-11,158.52604166666666,,158.52604166666666
457,2019-04-12,155.74479166666666,,155.74479166666666
457,2019-04-13,149.5625,,149.5625
457,2019-04-14,149.17708333333334,,149.17708333333334
457,2019-04-15,149.99479166666666,,149.99479166666666
457,2019-04-16,160.91145833333334,,160.91145833333334
457,2019-04-17,133.08854166666666,,133.08854166666666
457,2019-04-18,126.640625,,126.640625
457,2019-04-19,138.65625,,138.65625
457,2019-04-20,169.67708333333334,,169.67708333333334
457,2019-04-21,172.86458333333334,,172.86458333333334
457,2019-04-22,175.015625,,175.015625
457,2019-04-23,167.39583333333334,,167.39583333333334
457,2019-04-24,167.02604166666666,,167.02604166666666
457,2019-04-25,176.0,,176.0
457,2019-04-26,170.74479166666666,,170.74479166666666
457,2019-04-27,177.78645833333334,,177.78645833333334
457,2019-04-28,176.078125,,176.078125
457,2019-04-29,183.671875,,183.671875
457,2019-04-30,179.02604166666666,,179.02604166666666
457,2019-05-01,190.515625,,190.515625
457,2019-05-02,183.890625,,183.890625
457,2019-05-03,188.30208333333334,,188.30208333333334
457,2019-05-04,177.921875,,177.921875
457,2019-05-05,181.109375,,181.109375
457,2019-05-06,150.16666666666666,,150.16666666666666
457,2019-05-07,151.16666666666666,,151.16666666666666
457,2019-05-08,144.72395833333334,,144.72395833333334
457,2019-05-09,155.60416666666666,,155.60416666666666
457,2019-05-10,150.85416666666666,,150.85416666666666
457,2019-05-11,146.22916666666666,,146.22916666666666
457,2019-05-12,157.25,,157.25
457,2019-05-13,162.046875,,162.046875
457,2019-05-14,158.86979166666666,,158.86979166666666
457,2019-05-15,159.83333333333334,,159.83333333333334
457,2019-05-16,157.48958333333334,,157.48958333333334
457,2019-05-17,156.09895833333334,,156.09895833333334
457,2019-05-18,157.19270833333334,,157.19270833333334
457,2019-05-19,156.40625,,156.40625
457,2019-05-20,152.75,,152.75
457,2019-05-21,171.59895833333334,,171.59895833333334
457,2019-05-22,189.359375,,189.359375
457,2019-05-23,191.984375,,191.984375
457,2019-05-24,190.39583333333334,,190.39583333333334
457,2019-05-25,192.38541666666666,,192.38541666666666
457,2019-05-26,185.1875,,185.1875
457,2019-05-27,185.52083333333334,,185.52083333333334
457,2019-05-28,186.79166666666666,,186.79166666666666
457,2019-05-29,186.41666666666666,,186.41666666666666
457,2019-05-30,186.97395833333334,,186.97395833333334
457,2019-05-31,179.890625,,179.890625
457,2019-06-01,180.94270833333334,,180.94270833333334
457,2019-06-02,178.64583333333334,,178.64583333333334
457,2019-06-03,182.52604166666666,,182.52604166666666
457,2019-06-04,180.80729166666666,,180.80729166666666
457,2019-06-05,178.36979166666666,,178.36979166666666
457,2019-06-06,162.30208333333334,,162.30208333333334
457,2019-06-07,170.76041666666666,,170.76041666666666
457,2019-06-08,179.45833333333334,,179.45833333333334